Bolton Field, OH

10:16 PM EDT on May 27, 2017 (GMT -0400)
Bolton

Weather History for KTZR - May, 2013

Change the Weather History Date:

Saturday, May 11, 2013

  Actual Average Record
Temperature  
Mean Temperature 53 °F -  
Max Temperature 61 °F 71 °F 89 °F (2005)
Min Temperature 45 °F 51 °F 35 °F (1997)
Degree Days  
Heating Degree Days 12    
Growing Degree Days 3 (Base 50)    
Moisture  
Dew Point 49 °F    
Average Humidity 85    
Maximum Humidity 98    
Minimum Humidity 49    
Precipitation  
Precipitation 0.02 in - - ()
Sea Level Pressure  
Sea Level Pressure 29.88 in    
Wind  
Wind Speed 8 mph (West)    
Max Wind Speed 21 mph    
Max Gust Speed 40 mph    
Visibility 8 miles    
Events Rain    
Averages and records for this station are not official NWS values.
T = Trace of Precipitation, MM = Missing Value Source: NWS Daily Summary

Daily Weather History Graph

Daily Weather History Graph

Search for Another Location

Airport or City:

Trip Planner

Search our weather history database for the weather conditions in past years. The results will help you decide how hot, cold, wet, or windy it might be!

Date:

Astronomy

May. 11, 2013 Rise Set
Actual Time 6:21 AM EDT 8:37 PM EDT
Civil Twilight 5:50 AM EDT 9:07 PM EDT
Nautical Twilight 5:13 AM EDT 9:44 PM EDT
Astronomical Twilight 4:33 AM EDT 10:25 PM EDT
Moon 7:28 AM EDT (5/11) 10:16 PM EDT (5/11)
Length of Visible Light 15h 16m
Length of Day
14h 16m
Waxing Crescent, 3% of the Moon is Illuminated
May 11
Waxing Crescent
May 18
First Quarter
May 25
Full
May 31
Last Quarter
Jun 8
New

Hourly Weather History & Observations

Time (EDT) Temp. Windchill Dew Point Humidity Pressure Visibility Wind Dir Wind Speed Gust Speed Precip Events Conditions
12:15 AM 61.7 °F - 61.0 °F 97% 29.84 in 7.0 mi SW 9.2 mph - N/A   Overcast
12:35 AM 61.7 °F - 61.0 °F 97% 29.84 in 7.0 mi WSW 8.1 mph - N/A   Overcast
12:55 AM 61.3 °F - 60.8 °F 98% 29.84 in 5.0 mi WSW 8.1 mph - 0.01 in Rain Light Rain
1:15 AM 61.2 °F - 60.1 °F 96% 29.84 in 7.0 mi WSW 5.8 mph - N/A   Overcast
1:35 AM 60.4 °F - 57.6 °F 90% 29.85 in 7.0 mi WNW 10.4 mph 17.3 mph N/A   Overcast
1:55 AM 58.3 °F - 55.8 °F 91% 29.85 in 7.0 mi WNW 8.1 mph - N/A   Overcast
2:15 AM 57.7 °F - 55.2 °F 91% 29.85 in 7.0 mi WNW 8.1 mph - N/A   Overcast
2:35 AM 57.2 °F - 54.0 °F 89% 29.84 in 7.0 mi WNW 8.1 mph - N/A   Overcast
2:55 AM 56.5 °F - 53.8 °F 91% 29.84 in 7.0 mi WNW 9.2 mph - N/A   Overcast
3:15 AM 56.1 °F - 53.8 °F 92% 29.85 in 7.0 mi WNW 8.1 mph - N/A   Overcast
3:35 AM 55.4 °F - 52.7 °F 91% 29.84 in 7.0 mi WNW 5.8 mph - N/A   Overcast
3:55 AM 54.7 °F - 52.3 °F 92% 29.84 in 7.0 mi WNW 8.1 mph - N/A   Mostly Cloudy
4:15 AM 54.1 °F - 51.8 °F 92% 29.84 in 7.0 mi West 5.8 mph - N/A   Mostly Cloudy
4:35 AM 54.0 °F - 47.8 °F 80% 29.85 in 7.0 mi West 6.9 mph - N/A   Overcast
4:55 AM 53.6 °F - 52.0 °F 94% 29.85 in 7.0 mi WNW 8.1 mph - N/A   Overcast
5:15 AM 54.0 °F - 51.8 °F 92% 29.85 in 7.0 mi WNW 9.2 mph - N/A   Overcast
5:35 AM 53.6 °F - 51.8 °F 94% 29.85 in 7.0 mi NW 10.4 mph - N/A   Overcast
5:55 AM 52.7 °F - 50.9 °F 94% 29.86 in 10.0 mi WNW 8.1 mph - N/A   Overcast
6:15 AM 52.3 °F - 50.2 °F 92% 29.87 in 10.0 mi WNW 8.1 mph - N/A   Overcast
6:35 AM 52.2 °F - 50.0 °F 92% 29.87 in 10.0 mi NW 8.1 mph - N/A   Overcast
6:55 AM 51.3 °F - 50.2 °F 96% 29.87 in 7.0 mi NW 5.8 mph - N/A   Overcast
7:10 AM 51.8 °F - 50.0 °F 94% 29.87 in 4.0 mi NNW 6.9 mph - N/A Rain Light Rain
7:15 AM 51.1 °F - 50.2 °F 97% 29.87 in 2.5 mi NW 4.6 mph - N/A Rain Light Rain
7:28 AM 51.8 °F - 50.0 °F 94% 29.87 in 2.0 mi NW 8.1 mph - N/A Rain Light Rain
7:47 AM 51.8 °F - 46.4 °F 82% 29.87 in 5.0 mi WNW 5.8 mph - N/A   Overcast
8:50 AM 50.0 °F - 46.4 °F 87% 29.88 in 7.0 mi NW 8.1 mph - N/A   Overcast
9:47 AM 51.8 °F - 46.4 °F 82% 29.88 in 7.0 mi WNW 6.9 mph - N/A   Overcast
10:47 AM 51.8 °F - 46.4 °F 82% 29.90 in 7.0 mi West 4.6 mph - N/A   Overcast
11:50 AM 51.8 °F - 48.2 °F 88% 29.89 in 10.0 mi WNW 5.8 mph - N/A   Overcast
12:50 PM 53.6 °F - 46.4 °F 77% 29.90 in 10.0 mi West 6.9 mph - N/A   Overcast
1:50 PM 53.6 °F - 48.2 °F 82% 29.89 in 10.0 mi WNW 9.2 mph - N/A   Overcast
2:50 PM 53.6 °F - 48.2 °F 82% 29.89 in 10.0 mi SW 8.1 mph - N/A   Overcast
3:50 PM 53.6 °F - 48.2 °F 82% 29.88 in 10.0 mi WSW 6.9 mph - N/A   Overcast
4:50 PM 55.4 °F - 48.2 °F 77% 29.87 in 10.0 mi WSW 9.2 mph - N/A   Overcast
5:50 PM 55.4 °F - 48.2 °F 77% 29.89 in 10.0 mi SW 16.1 mph - N/A   Overcast
6:50 PM 55.4 °F - 48.2 °F 77% 29.87 in 10.0 mi West 9.2 mph - N/A   Overcast
7:35 PM 54.1 °F - 47.1 °F 77% 29.87 in 10.0 mi SW 8.1 mph - N/A   Scattered Clouds
7:55 PM 54.7 °F - 47.1 °F 76% 29.87 in 10.0 mi SW 9.2 mph - N/A   Mostly Cloudy
8:15 PM 54.0 °F - 47.7 °F 79% 29.87 in 10.0 mi SSW 10.4 mph - N/A   Mostly Cloudy
8:35 PM 52.7 °F - 47.7 °F 83% 29.87 in 10.0 mi SSW 9.2 mph - N/A   Scattered Clouds
8:55 PM 52.0 °F - 48.2 °F 87% 29.87 in 10.0 mi SSW 8.1 mph - N/A   Clear
9:15 PM 51.8 °F - 48.4 °F 88% 29.87 in 10.0 mi SSW 6.9 mph - N/A   Scattered Clouds
9:35 PM 50.5 °F - 45.5 °F 83% 29.92 in 10.0 mi WNW 20.7 mph 40.3 mph N/A Rain Rain
10:15 PM 45.5 °F 40.8 °F 40.3 °F 82% 29.94 in 10.0 mi NW 9.2 mph - N/A Rain Rain
10:35 PM 45.5 °F 40.8 °F 38.5 °F 76% 29.95 in 10.0 mi NW 9.2 mph - 0.01 in   Overcast
10:55 PM 45.3 °F 40.6 °F 32.9 °F 62% 29.95 in 10.0 mi WNW 9.2 mph - 0.01 in   Overcast
11:15 PM 45.5 °F 41.3 °F 27.5 °F 49% 29.96 in 10.0 mi WNW 8.1 mph - N/A   Overcast
11:35 PM 45.3 °F 40.6 °F 29.1 °F 53% 29.97 in 10.0 mi NW 9.2 mph - N/A   Overcast
11:55 PM 45.3 °F 40.6 °F 29.8 °F 55% 29.97 in 10.0 mi WNW 9.2 mph - N/A   Overcast